Content
SEND FEEDBACK

Daily
Averages
Monthly
Summary
French Polynesia

PAPEETE, FRENCH POLYNESIA


Home > Oceania > French Polynesia
Elevation: 7 feet     Latitude: 17 33S     Longitude: 149 36W

WEATHER
 
SELECT A DAY
Number of Records: 208,079;   Date Range: 6/30/96 - 7/20/14
 
SHARE

PRINT THIS DATA

[ ← Previous Day ]
WEATHER ALMANAC - MARCH 16, 2013
[ Next Day → ]
[ °C ]   °F
Weather ElementAverageHighLow
Temperature82.9 °F89.6 °F (1:00 pm)77 °F (4:30 am)
Dewpoint72 °F75.2 °F (11:00 am)69.8 °F (5:00 am)
Humidity68.9 %83 % (4:30 am)47 % (5:00 pm)
Barometer29.92 in29.97 in (8:00 am)29.86 in (2:30 pm)
Wind Speed4.2 mph11.2 mph (2:00 pm)
Weather ElementAverage
Visibility8.1 mi
Wind DirectionSSE (168.9 °)

Weather ElementTotal
Precipitation---
Cooling Degree Days18.3 (Base 65)
Growing Degree Days33.3 (Base 50)
Averaged from 55 records on March 16, 2013
WEATHER CONDITIONS BREAKOUT
WIND DIRECTION BREAKOUT
WEATHER BY HOUR - MARCH 16, 2013
[ °C ]   °F
Local TimeTemperatureDewpointHumidityBarometerVisibilityWind DirectionWind SpeedGust SpeedPrecipitationEventsConditions
12:30 AM78.8 °F71.6 °F78 %29.95 in6.2 miVariable1.2 mphPartly Cloudy
1:00 AM78.8 °F71.6 °F78 %29.95 in6.2 miCalmPartly Cloudy
1:30 AM78.8 °F71.6 °F78 %29.95 in6.2 miVariable1.2 mphPartly Cloudy
2:00 AM78.0 °F72.0 °F76 %29.94 in12.0 miSSE (160°)6.7 mphScattered Clouds
2:00 AM78.8 °F71.6 °F78 %29.92 in6.2 miSSE (160°)3.5 mphPartly Cloudy
2:30 AM78.8 °F71.6 °F78 %29.92 in6.2 miSSE (160°)4.6 mphPartly Cloudy
3:00 AM78.8 °F71.6 °F78 %29.92 in6.2 miSSE (160°)4.6 mphPartly Cloudy
3:30 AM78.8 °F71.6 °F78 %29.92 in6.2 miVariable2.3 mphPartly Cloudy
4:00 AM78.8 °F71.6 °F78 %29.92 in6.2 miEast (90°)3.5 mph
4:30 AM77.0 °F71.6 °F83 %29.92 in6.2 miESE (110°)3.5 mphPartly Cloudy
5:00 AM77.0 °F71.0 °F75 %29.94 in37.0 miESE (110°)2.3 mphClear
5:00 AM77.0 °F69.8 °F78 %29.92 in6.2 miESE (110°)2.3 mph
5:30 AM77.0 °F69.8 °F78 %29.95 in6.2 miEast (100°)3.5 mph
6:00 AM77.0 °F69.8 °F78 %29.95 in6.2 miCalmPartly Cloudy
6:30 AM77.0 °F69.8 °F78 %29.95 in6.2 miESE (110°)1.2 mphPartly Cloudy
7:00 AM78.8 °F71.6 °F78 %29.95 in6.2 miCalmPartly Cloudy
7:30 AM82.4 °F71.6 °F70 %29.95 in6.2 miCalmPartly Cloudy
8:00 AM83.0 °F71.0 °F60 %29.97 in19.0 miNorth (350°)2.3 mphPartly Cloudy
8:00 AM84.2 °F71.6 °F66 %29.95 in6.2 miNorth (350°)2.3 mphPartly Cloudy
8:30 AM84.2 °F71.6 °F66 %29.95 in6.2 miNorth (10°)3.5 mphPartly Cloudy
9:00 AM84.2 °F71.6 °F66 %29.95 in6.2 miNorth (360°)3.5 mphPartly Cloudy
9:30 AM84.2 °F73.4 °F70 %29.95 in6.2 miNNW (340°)3.5 mphPartly Cloudy
10:00 AM84.2 °F73.4 °F70 %29.95 in6.2 miNNW (330°)5.8 mphPartly Cloudy
10:30 AM86.0 °F73.4 °F66 %29.95 in6.2 miNW (320°)4.6 mphPartly Cloudy
11:00 AM87.0 °F74.0 °F57 %29.94 in19.0 miWNW (290°)8.9 mphScattered Clouds
11:00 AM86.0 °F75.2 °F70 %29.92 in6.2 miWNW (290°)4.6 mphPartly Cloudy
11:30 AM87.8 °F73.4 °F62 %29.92 in6.2 miWest (280°)5.8 mphPartly Cloudy
12:00 PM87.8 °F73.4 °F62 %29.92 in6.2 miWest (270°)4.6 mphPartly Cloudy
12:30 PM87.8 °F71.6 °F58 %29.89 in6.2 miWSW (250°)4.6 mphPartly Cloudy
1:00 PM89.6 °F73.4 °F59 %29.89 in6.2 miWest (280°)3.5 mphPartly Cloudy
1:30 PM89.6 °F71.6 °F55 %29.89 in6.2 miVariable3.5 mphPartly Cloudy
2:00 PM88.0 °F72.0 °F49 %29.89 in19.0 miNW (310°)11.2 mphScattered Clouds
2:00 PM87.8 °F71.6 °F58 %29.89 in6.2 miNW (310°)5.8 mphPartly Cloudy
2:30 PM86.0 °F73.4 °F66 %29.86 in6.2 miNNW (330°)9.2 mphPartly Cloudy
3:00 PM87.8 °F73.4 °F62 %29.86 in6.2 miNorth (350°)6.9 mphPartly Cloudy
3:30 PM87.8 °F71.6 °F58 %29.86 in6.2 miNorth (360°)6.9 mphPartly Cloudy
4:00 PM87.8 °F71.6 °F58 %29.86 in6.2 miNNW (330°)3.5 mphPartly Cloudy
4:30 PM89.6 °F71.6 °F55 %29.86 in6.2 miVariable2.3 mphPartly Cloudy
5:00 PM88.0 °F71.0 °F47 %29.88 in19.0 miSSW (200°)11.2 mphScattered Clouds
5:00 PM87.8 °F71.6 °F58 %29.86 in6.2 miSSW (200°)5.8 mphPartly Cloudy
5:30 PM86.0 °F71.6 °F62 %29.86 in6.2 miSouth (190°)10.4 mphPartly Cloudy
6:00 PM86.0 °F71.6 °F62 %29.89 in6.2 miSouth (190°)8.1 mphPartly Cloudy
6:30 PM84.2 °F71.6 °F66 %29.89 in6.2 miSouth (180°)4.6 mphPartly Cloudy
7:00 PM84.2 °F73.4 °F70 %29.89 in6.2 miWSW (250°)4.6 mphPartly Cloudy
7:30 PM84.2 °F75.2 °F74 %29.92 in6.2 miWSW (250°)6.9 mphPartly Cloudy
8:00 PM83.0 °F72.0 °F63 %29.93 in16.0 miSSE (150°)3.5 mphScattered Clouds
8:00 PM82.4 °F73.4 °F74 %29.92 in6.2 miSSE (150°)3.5 mphPartly Cloudy
8:30 PM80.6 °F71.6 °F74 %29.92 in6.2 miENE (70°)3.5 mphPartly Cloudy
9:00 PM80.6 °F71.6 °F74 %29.95 in6.2 miVariable2.3 mphPartly Cloudy
9:30 PM80.6 °F73.4 °F79 %29.92 in6.2 miSSE (160°)5.8 mphPartly Cloudy
10:00 PM80.6 °F73.4 °F79 %29.95 in6.2 miSSE (160°)4.6 mphPartly Cloudy
10:30 PM80.6 °F71.6 °F74 %29.95 in6.2 miVariable2.3 mphPartly Cloudy
11:00 PM80.0 °F72.0 °F69 %29.94 in12.0 miEast (80°)4.5 mphScattered Clouds
11:00 PM80.6 °F71.6 °F74 %29.92 in6.2 miEast (80°)2.3 mphPartly Cloudy
11:30 PM78.8 °F71.6 °F78 %29.92 in6.2 miCalmPartly Cloudy
Hourly data recorded from NTAA, located miles away from Papeete, French Polynesia







STORIES FROM OUR PARTNERS